Location: Harbor Side
(32.6101°N, 117.0814°W)
Time: 08:06:20
(UTC+00:00)

In-Cosmos 22 - Pass Details

Date: 21 April 2021
Orbit: 784 x 877 km, 81.2° (Epoch: 13 May)

Event Time Altitude Azimuth Distance (km) Brightness Sun altitude
Rises 12:12:39 0° 188° (S) 3,447 7.1 -12.5°
Reaches altitude 10° 12:15:04 10° 189° (S) 2,517 6.4 -12.1°
Maximum altitude 12:20:50 85° 277° (W) 885 4.3 -11.0°
Drops below altitude 10° 12:26:37 10° 7° (N) 2,526 7.1 -9.8°
Sets 12:29:03 0° 8° (N) 3,460 7.8 -9.3°
